Regional Weather Roundup
Issued by NWS State College, PA

Home | Current Version | Previous Version | Graphics & Text | Print | Product List | Glossary Off
Versions: 1 2 3 4 5 6 7 8 9 10 11 12 13 14 15 16 17 18 19 20 21 22 23 24 25 26 27 28 29 30 31 32 33 34 35 36 37 38 39 40 41 42 43 44 45 46 47 48 49 50

000
ASUS41 KCTP 290903
RWRCTP

REGIONAL WEATHER ROUNDUP
NATIONAL WEATHER SERVICE STATE COLLEGE PA
500 AM EDT TUE JUL 29 2014

Note: "fair" indicates few or no clouds below 12,000 feet with no
significant weather and/or obstructions to visibility.

* = STATION THAT DOES NOT REPORT PRECIPITATION /E.G. RAIN...SNOW...ETC/
    THUNDER OR FOG.

PAZ002>004-007>009-013>016-020>023-029>032-291000-
WESTERN PENNSYLVANIA

CITY           SKY/WX    TMP DP  RH WIND       PRES   REMARKS
ERIE           CLOUDY    61  51  70 N7        29.91S
MEADVILLE      CLOUDY    53  49  86 SW3       29.93S
FRANKLIN*      CLOUDY    52  46  82 W5        29.95R
NEW CASTLE       N/A     54  50  86 CALM      29.95F
BEAVER COUNTY  NOT AVBL
BUTLER*        CLOUDY    52  48  87 W3        29.95S
PITTSBURGH INT PTCLDY    52  50  93 W8        29.95S
PITTSBURGH     CLEAR     52  48  86 W6        29.94S
INDIANA*       CLOUDY    54  50  87 VRB6      29.97R
LATROBE        CLOUDY    52  52 100 SW7       29.95S
WASHINGTON CO* CLEAR     52  48  87 W5        29.96R
$$

PAZ004>006-010>012-017>019-024>028-033>037-041-042-045-046-049>053-291000-
CENTRAL PENNSYLVANIA

CITY           SKY/WX    TMP DP  RH WIND       PRES   REMARKS
BRADFORD       CLOUDY    52  49  89 NW6       29.91R
DUBOIS         CLOUDY    53  50  89 W6        29.91R
CLEARFIELD     CLOUDY    54  51  90 W5        29.91R
JOHNSTOWN      CLOUDY    49  46  90 W8        29.93R
ALTOONA        PTCLDY    53  49  86 SW3       29.93R
STATE COLLEGE  MOCLDY    55  52  90 SW5       29.89R
WILLIAMSPORT   CLOUDY    61  54  77 W7        29.85R
SELINSGROVE    CLOUDY    61  56  83 VRB5      29.87R
FT INDIANTOWN  CLEAR     56  56  99 CALM      29.86R
CAPITAL CITY   PTCLDY    57  55  93 SW3       29.86R
HARRISBURG     MOCLDY    61  57  87 CALM      29.86R
YORK           CLEAR     57  55  93 CALM      29.87R
$$

PAZ038>040-043-044-047-048-054-055-060>062-067>071-291000-
EASTERN PENNSYLVANIA

CITY           SKY/WX    TMP DP  RH WIND       PRES   REMARKS
SCRANTON       CLOUDY    59  54  83 W5        29.84R
MOUNT POCONO   CLOUDY    55  52  89 NW9       29.84R
ALLENTOWN      CLEAR     59  53  80 CALM      29.83R
QUAKERTOWN*    SUNNY     57  55  94 CALM      29.85R
READING        PTCLDY    60  54  80 CALM      29.85R
LANCASTER      CLEAR     58  55  90 SW3       29.85R
COATESVILLE    SUNNY     59  59 100 NW8       29.86R
POTTSTOWN      CLEAR     58  54  86 CALM      29.86R
BLUE BELL      CLEAR     61  55  82 CALM      29.83R
DOYLESTOWN     CLEAR     58  55  90 W3        29.83R
WILLOW GROVE   NOT AVBL
NORTH PHILA    CLEAR     63  55  75 NW6       29.84R
PHILADELPHIA   CLEAR     66  55  67 NW10      29.84R
$$


USA.gov is the U.S. government's official web portal to all federal, state and local government web resources and services.